2024-159K

Last updated on Thu Sep 19 2024 00:02:04 GMT+0000 (Coordinated Universal Time)

1 61020U 24159K 24262.32131611 .00018078 00000+0 13517-2 0 9996 2 61020 49.9997 180.5945 0007458 314.0559 45.9773 15.02750631 1861

Satellite not in orbit

2024-159K